{"data":{"norad_id":57956,"intl_designator":"2023-084BZ","name":"SKYKRAFT-3D","alt_names":[],"object_type":"PAYLOAD","status":"ACTIVE","operator":null,"country":"AUS","launch_date":"2023-06-12","launch_site_code":"AFWTR","launch_vehicle":null,"mission":null,"orbit_class":"UNKNOWN","rcs_meters":null,"size_class":null,"mass_kg":null,"dimensions":null,"purposes":[],"wikipedia_slug":null,"has_3d_model":false,"image_url":null,"decayed_at":null,"tle_current":{"epoch":"2026-05-25T04:27:27.631872Z","epoch_age_seconds":59327,"freshness":"FRESH","line1":"1 57956U 23084BZ  26145.18573648  .00104768  00000+0  65659-3 0  9998","line2":"2 57956  97.6068 302.2212 0002427 293.4079  66.6931 15.76484097151549","mean_motion":15.76484097,"eccentricity":0.0002427,"inclination_deg":97.6068,"raan_deg":302.2212,"arg_perigee_deg":293.4079,"mean_anomaly_deg":66.6931,"bstar":0.00065659,"rev_number":15154,"period_min":91.342500868881,"perigee_km":338.78073273511,"apogee_km":342.04191609179,"semimajor_km":6718.5483244134,"source":"CELESTRAK","updated_at":"2026-05-25T13:38:00.385357Z"}}}